Hourly Weather Roundup
Issued by NWS Central Illinois

Home | Current Version | Previous Version | Text Only | Print | Product List | Glossary On
Versions: 1 2 3 4 5 6 7 8 9 10 11 12 13 14 15 16 17 18 19 20 21 22 23 24 25 26 27 28 29 30 31 32 33 34 35 36 37 38 39 40 41 42 43 44 45 46 47 48 49 50
000
NZUS43 KILX 240510
HWRILX

AREA WEATHER ROUNDUP
NATIONAL WEATHER SERVICE, LINCOLN IL
1200 AM CDT THU APR 24 2014


CITY           SKY/WX    TMP DP  RH WIND       PRES   REMARKS
BLOOMINGTON    CLOUDY    47  40  76 SE12      29.98F
CHAMPAIGN      MOCLDY    51  38  60 E12       30.00F
DANVILLE       CLOUDY    52  35  51 SE6       29.99S
DECATUR        PTCLDY    54  33  45 SE9       29.99F
FLORA          CLEAR     49  37  64 CALM      30.00F
GALESBURG      MOCLDY    49  39  70 E13       29.93F
JACKSONVILLE   PTCLDY    52  33  47 SE15      29.95S
LACON          CLOUDY    46  38  75 E8        29.99F
LAWRENCEVILLE  MOCLDY    55  35  47 E9        30.01F
LITCHFIELD     CLEAR     53  35  50 SE9       29.98R
$$


CITY           SKY/WX    TMP DP  RH WIND       PRES   REMARKS
LINCOLN        MOCLDY    55  32  42 SE9       29.97S
MACOMB         MOCLDY    52  33  48 SE14      29.94S
MATTOON        MOCLDY    53  31  42 SE10      29.99F
MT CARMEL AP   PTCLDY    55  37  50 E7        30.01S
OLNEY-NOBLE AP PTCLDY    52  34  50 E6        30.00F
PARIS          CLOUDY    53  36  52 E6        30.02F
PEORIA         CLOUDY    53  36  52 E7        29.98R
PONTIAC        DRIZZLE   45  37  76 E16       29.98F
RANTOUL        CLOUDY    53  40  60 CALM      30.02F
ROBINSON       CLEAR     54  37  52 E8        30.02F
SPRINGFIELD    MOCLDY    55  31  39 SE9       29.98S
TAYLORVILLE    PTCLDY    52  34  50 SE7       29.98R
$$

...REGIONAL REPORTS...


CITY           SKY/WX    TMP DP  RH WIND       PRES   REMARKS
CHICAGO O`HARE LGT RAIN  41  26  55 E9        30.03F
KANKAKEE       RAIN      41  37  84 E7        30.03S
MOLINE         CLOUDY    47  39  74 E17       29.93F
MOUNT VERNON   CLEAR     46  34  61 NE3       30.00S
PITTSFIELD     CLEAR     55  32  42 SE14      29.92F
QUINCY         CLEAR     53  33  46 SE16      29.88F
ROCKFORD       CLOUDY    41  32  70 E9        30.06R
$$


CITY           SKY/WX    TMP DP  RH WIND       PRES   REMARKS
BURLINGTON     MOCLDY    52  33  48 SE13      29.89F
CEDAR RAPIDS   CLOUDY    47  39  74 SE17      29.89R
DES MOINES     CLOUDY    52  39  61 SE7       29.80S
KIRKSVILLE     PTCLDY    53  35  50 SE16      29.82F
OTTUMWA        MOCLDY    51  34  52 SE13      29.83R
ST LOUIS       PTCLDY    58  32  37 SE12      29.95S
$$


CITY           SKY/WX    TMP DP  RH WIND       PRES   REMARKS
TERRE HAUTE    MOCLDY    51  35  54 E6        30.02F
EVANSVILLE     PTCLDY    54  37  52 E5        30.01F
INDIANAPOLIS   CLOUDY    53  30  41 E9        30.04R
LAFAYETTE      CLOUDY    52  31  44 E12       30.02F
MADISON        CLOUDY    39  31  72 E7        30.06R WCI  34
MILWAUKEE      CLOUDY    38  21  50 NE5       30.09R WCI  34
$$




USA.gov is the U.S. government's official web portal to all federal, state and local government web resources and services.